Location: Unspecified
(0.0000°N, 0.0000°E)
Time: 13:29:38
(UTC+02:00)

AO-40 - Visible Passes

Search period start: 26 April 2018 00:00
Search period end: 06 May 2018 00:00
Orbit: 1051 x 58768 km, 6.2° (Epoch: 25 April)

Date Brightness Start Highest point End Pass type
(mag) Time Alt. Az. Time Alt. Az. Time Alt. Az.
26 Apr ? 17:42:21 10° WSW 02:03:12 84° N 08:44:15 10° W daylight
27 Apr ? 21:01:40 10° E 03:51:08 83° N 07:33:40 10° E daylight
28 Apr ? 23:00:11 10° E 00:42:01 18° E 01:43:01 10° E visible
29 Apr ? 22:26:21 10° W 23:59:51 77° W 06:57:11 10° W visible
30 Apr ? 17:14:41 10° WSW 01:54:29 84° N 08:39:21 10° W daylight
01 May ? 20:52:49 10° E 03:49:11 83° N 07:05:41 10° E visible
02 May ? 23:02:50 10° E 00:14:41 15° E 01:03:39 10° E visible
03 May ? 21:58:03 10° W 23:30:21 81° WNW 06:48:27 10° W visible
04 May ? 16:47:01 10° WSW 01:45:44 84° N 11:47:20 10° ESE daylight
